Preview of NWS' New Version of Forecast
This preview is not operational and should not be used for support decisions.

Regional Weather Roundup (RWR)

Issued by Gray - Portland, ME (GYX)

                            
676 
ASUS41 KGYX 200110
RWRGYX
WEATHER ROUNDUP FOR MAINE AND NEW HAMPSHIRE
NATIONAL WEATHER SERVICE GRAY ME
900 PM EDT THU APR 19 2018

MEZ002-005-006-010-012-015-018-020-021-024-026-027-029-200200-
MAINE
  
CITY           SKY/WX    TMP DP  RH WIND       PRES   REMARKS
PORTLAND       CLOUDY    40  36  86 NW8       29.76R                  
SANFORD        LGT RAIN  38  34  85 NW7       29.77R                  
BAR HARBOR     LGT RAIN  39  38  96 CALM      29.71R                  
WISCASSET      CLOUDY    40  35  83 VRB3      29.75R                  
ROCKLAND       CLOUDY    40  39  97 W6        29.72R                  
FRYEBURG       CLOUDY    37  35  92 CALM      29.76R                  
LEWISTONAUBURN CLOUDY    41  27  57 NW12      29.75R                  
AUGUSTA        CLOUDY    39  33  79 NW6       29.74R                  
WATERVILLE     CLOUDY    40  31  70 N6        29.72R                  
BANGOR         CLOUDY    41  33  73 N8        29.71R                  
GREENVILLE       N/A     33  29  85 NW6       29.68R                  
MILLINOCKET    CLOUDY    40  29  64 NW5       29.71R                  
HOULTON        CLOUDY    38  32  79 CALM      29.68R                  
PRESQUE ISLE   NOT AVBL                                               
FRENCHVILLE    CLOUDY    38  31  76 N7        29.70R                  
CARIBOU        CLOUDY    39  30  70 N9        29.70R                  
$$

NHZ002-005-008-009-011-012-014-200200-
NEW HAMPSHIRE
  
CITY           SKY/WX    TMP DP  RH WIND       PRES   REMARKS
PORTSMOUTH     CLOUDY    40  33  76 N13       29.76R                  
ROCHESTER      CLOUDY    38  35  89 NW5       29.76R                  
NASHUA         CLOUDY    40  31  70 W7        29.80R                  
MANCHESTER     CLOUDY    43  29  57 NW12      29.77R                  
CONCORD        CLOUDY    39  27  62 NW16G25   29.79R                  
LACONIA        FAIR      37  28  70 W5        29.79R                  
PLYMOUTH       MOCLDY    37  29  74 W9        29.79R                  
BERLIN         LGT SNOW  34  31  88 NW3       29.76R FOG              
WHITEFIELD     LGT SNOW  33  32  96 CALM      29.78R FOG              
JAFFREY        CLOUDY    37  31  78 NW5       29.80R                  
KEENE          CLOUDY    36  33  89 CALM      29.83R                  
LEBANON        CLOUDY    38  26  62 NW8       29.82R                  
MT WASHINGTON  SNOW      12  12 100 NW31G44     N/A  VSB 0   WCI -10  
$$

VTZ005-007-008-200200-
VERMONT
  
CITY           SKY/WX    TMP DP  RH WIND       PRES   REMARKS
ST JOHNSBURY     N/A     34  33  96 MISG      29.79R                  
MONTPELIER     LGT SNOW  31  30  96 NW12      29.85R FOG              
BURLINGTON     LGT SNOW  36  29  75 NW14G28   29.88R                  
$$

MAZ007-012-024-CTZ003-RIZ002-NYZ038-NYZ072-200200-
SOUTHERN NEW ENGLAND AND NY
  
CITY           SKY/WX    TMP DP  RH WIND       PRES   REMARKS
BOSTON         MOCLDY    43  35  73 W9        29.78R                  
WORCESTER      CLOUDY    34  31  88 W16       29.79R                  
NANTUCKET      CLOUDY    41  40  96 W9        29.78R                  
PROVIDENCE     LGT RAIN  42  35  76 NW15G23   29.81R                  
HARTFORD       CLOUDY    39  27  62 NW10      29.87R                  
ALBANY         CLOUDY    37  26  64 W14       29.91R                  
NEW YORK CITY  FAIR      43  24  47 NW25G37   29.94R                  
$$

ANZ081-ANZ082-ANZ150-NHZ014-MEZ023>029-200200-
COASTAL MARINE OBSERVATIONS
  
STATION/POSITION TIME  TEMP    WIND        PRES    WAVE
                       AIR SEA DIR/SP/G            HT/PER
                 (UTC) (F)     (DEG/KT/KT) (MB)    (FT/S)
MOUNT DESERT ROC 0000   38     270/  4/  5 1005.8R
MATINICUS ROCK   0000   38     280/ 11/ 11 1005.3R
ISLE OF SHOALS   0000   42     330/ 18/ 19 1006.7R
JEFFREYS LEDGE   0036      41                N/A     2/ 8
CASHES LEDGE BUO 0050   39 40              1006.2R   4/ 9
$$

.............KEY..............
   WCI - WIND CHILL
   TC  - TEMPERATURE IN CELSIUS
   VSB - VISIBILITY IN MILES
   HX  - HEAT INDEX
   FAIR- INDICATES FEW OR NO CLOUDS BELOW 12,000 FT, WITH NO 
         SIGNIFICANT WEATHER AND/OR OBSTRUCTIONS TO VISIBILITY.